Dunkirk, NY

9:49 AM EST on December 06, 2016 (GMT -0500)
Chautauqua County-Dunkirk

Weather History for KDKK - October, 2012

Change the Weather History Date:

Friday, October 19, 2012

  Actual Average Record
Temperature  
Mean Temperature 52 °F -  
Max Temperature 64 °F 57 °F 80 °F (1953)
Min Temperature 39 °F 40 °F 28 °F (1930)
Degree Days  
Heating Degree Days 14    
Growing Degree Days 2 (Base 50)    
Moisture  
Dew Point 44 °F    
Average Humidity 72    
Maximum Humidity 96    
Minimum Humidity 48    
Precipitation  
Precipitation 0.00 in - - ()
Sea Level Pressure  
Sea Level Pressure 29.69 in    
Wind  
Wind Speed 5 mph (ESE)    
Max Wind Speed 18 mph    
Max Gust Speed 26 mph    
Visibility 10 miles    
Events Rain , Thunderstorm    
Averages and records for this station are not official NWS values.
T = Trace of Precipitation, MM = Missing Value Source: NWS Daily Summary

Daily Weather History Graph

Daily Weather History Graph

Search for Another Location

Airport or City:

Trip Planner

Search our weather history database for the weather conditions in past years. The results will help you decide how hot, cold, wet, or windy it might be!

Date:

Astronomy

Oct. 19, 2012 Rise Set
Actual Time 7:35 AM EDT 6:27 PM EDT
Civil Twilight 7:06 AM EDT 6:56 PM EDT
Nautical Twilight 6:34 AM EDT 7:29 PM EDT
Astronomical Twilight 6:01 AM EDT 8:01 PM EDT
Moon 12:20 PM EDT (10/19) 10:00 PM EDT (10/19)
Length of Visible Light 11h 49m
Length of Day
10h 52m
Waxing Crescent, 23% of the Moon is Illuminated
Oct 19
Waxing Crescent
Oct 21
First Quarter
Oct 29
Full
Nov 6
Last Quarter
Nov 13
New

Hourly Weather History & Observations

Time (EDT) Temp. Windchill Dew Point Humidity Pressure Visibility Wind Dir Wind Speed Gust Speed Precip Events Conditions
12:53 AM 45.0 °F - 42.1 °F 90% 29.80 in 10.0 mi Calm Calm - N/A   Clear
1:53 AM 46.0 °F 43.9 °F 39.0 °F 76% 29.79 in 10.0 mi SSE 4.6 mph - N/A   Clear
2:53 AM 50.0 °F - 39.0 °F 66% 29.78 in 10.0 mi South 9.2 mph - N/A   Clear
3:53 AM 48.0 °F - 39.9 °F 74% 29.77 in 10.0 mi South 8.1 mph - N/A   Clear
4:53 AM 46.9 °F - 39.0 °F 74% 29.77 in 10.0 mi SE 6.9 mph - N/A   Clear
5:53 AM 48.0 °F - 37.9 °F 68% 29.76 in 10.0 mi South 5.8 mph - N/A   Clear
6:53 AM 44.1 °F 41.5 °F 37.9 °F 79% 29.75 in 10.0 mi NE 4.6 mph - N/A   Clear
7:53 AM 39.9 °F 35.8 °F 37.0 °F 89% 29.76 in 10.0 mi ESE 5.8 mph - N/A   Clear
8:53 AM 44.1 °F 39.5 °F 39.9 °F 85% 29.76 in 10.0 mi ENE 8.1 mph - N/A   Clear
9:53 AM 53.1 °F - 42.1 °F 66% 29.74 in 10.0 mi ENE 3.5 mph - N/A   Clear
10:53 AM 59.0 °F - 41.0 °F 51% 29.72 in 10.0 mi South 6.9 mph - N/A   Clear
11:53 AM 62.1 °F - 42.1 °F 48% 29.69 in 10.0 mi South 18.4 mph 26.5 mph N/A   Clear
12:53 PM 64.0 °F - 44.1 °F 48% 29.67 in 10.0 mi South 11.5 mph - N/A   Clear
1:53 PM 62.1 °F - 46.9 °F 58% 29.65 in 10.0 mi North 8.1 mph - N/A   Clear
2:53 PM 63.0 °F - 46.9 °F 56% 29.63 in 10.0 mi North 6.9 mph - N/A   Clear
3:53 PM 62.1 °F - 46.9 °F 58% 29.62 in 10.0 mi NNE 8.1 mph - N/A   Clear
4:53 PM 60.1 °F - 46.0 °F 60% 29.61 in 10.0 mi NNE 6.9 mph - N/A   Partly Cloudy
5:53 PM 57.9 °F - 46.0 °F 65% 29.61 in 10.0 mi NE 5.8 mph - N/A   Overcast
6:53 PM 55.0 °F - 45.0 °F 69% 29.61 in 10.0 mi Calm Calm - N/A   Overcast
7:53 PM 57.0 °F - 50.0 °F 77% 29.62 in 10.0 mi NW 8.1 mph 17.3 mph N/A   Overcast
8:53 PM 55.0 °F - 51.1 °F 86% 29.64 in 10.0 mi West 5.8 mph - N/A   Overcast
9:53 PM 54.0 °F - 50.0 °F 86% 29.66 in 10.0 mi West 5.8 mph - 0.00 in Rain , Thunderstorm Light Rain
10:02 PM 53.6 °F - 50.0 °F 88% 29.66 in 10.0 mi West 3.5 mph - 0.00 in Rain Light Rain
10:53 PM 51.1 °F - 48.9 °F 92% 29.64 in 7.0 mi Calm Calm - 0.00 in   Mostly Cloudy
11:53 PM 50.0 °F - 48.9 °F 96% 29.62 in 7.0 mi SE 3.5 mph - N/A   Mostly Cloudy